Regional Weather Roundup
Issued by NWS Charleston, SC

Current Version | Previous Version | Graphics & Text | Print | Product List | Glossary On
Versions: 1 2 3 4 5 6 7 8 9 10 11 12 13 14 15 16 17 18 19 20 21 22 23 24 25 26 27 28 29 30 31 32 33 34 35 36 37 38 39 40 41 42 43 44 45 46 47 48 49 50
000 ASUS42 KCHS 150612 RWRCHS Regional Weather Roundup National Weather Service Charleston SC 100 AM EST FRI DEC 15 2017 NOTE: "fair" indicates few or no clouds below 12,000 feet with no significant weather and/or obstructions to visibility. Not all stations are quality controlled. Use data with caution, especially dewpoint observations. SCZ027-030-031-034>040-042>050-150700- ...Southeast South Carolina... CITY SKY/WX TMP DP RH WIND PRES REMARKS N Charleston CLOUDY 47 42 83 SW5 30.00F 6HR MIN TEMP: 45; 6HR MAX TEMP: 51; Waterfront Prk N/A 52 44 74 VRB2 29.86F Mount Pleasant FAIR 46 43 87 CALM 30.00F Johns Island FAIR 52 43 71 W3 30.01S Pinopolis N/A 50 41 71 SW6 29.92F Moncks Corner FAIR 43 39 87 CALM 30.00S Summerville FAIR 43 41 93 CALM 30.01F Beaufort MCAS CLOUDY 49 44 83 S6 30.01S 6HR MIN TEMP: 47; 6HR MAX TEMP: 50; Beaufort Arpt FAIR 52 41 66 SW6 30.01S Hilton Head Is CLOUDY 52 39 62 W6 30.02F Walterboro PTCLDY 43 41 93 CALM 30.01S Allendale FAIR 45 41 87 CALM 30.00S ...Southern Midlands and Pee Dee... CITY SKY/WX TMP DP RH WIND PRES REMARKS Georgetown FAIR 43 43 100 CALM 30.01F Kingstree FAIR 41 37 87 CALM 29.99F Orangeburg MOCLDY 46 37 71 CALM 29.99F 6HR MIN TEMP: 42; 6HR MAX TEMP: 48; Barnwell N/A 45 39 81 CALM 30.00S Aiken FAIR 45 36 70 SW6 30.01F Manning FAIR 43 32 65 MISG 29.99F Columbia MOCLDY 47 38 71 CALM 29.97F 6HR MIN TEMP: 42; 6HR MAX TEMP: 51; Sumter CLOUDY 44 36 73 CALM 29.95F 6HR MIN TEMP: 43; 6HR MAX TEMP: 47; Florence PTCLDY 42 36 79 CALM 29.99S 6HR MIN TEMP: 38; 6HR MAX TEMP: 44; Myrtle Beach MOCLDY 47 41 80 SW3 30.01S N Myrtle Beach CLOUDY 44 42 93 CALM 29.99F 6HR MIN TEMP: 42; 6HR MAX TEMP: 47; $$ GAZ063-065-086>088-099>101-113>116-118-119-134>141-150-150700- ...Southeast Georgia... CITY SKY/WX TMP DP RH WIND PRES REMARKS Savannah Arpt PTCLDY 48 39 71 W6 30.02F 6HR MIN TEMP: 47; 6HR MAX TEMP: 54; Hunter AAF CLOUDY 46 39 76 SW7 30.00S Fort Stewart CLOUDY 44 39 83 CALM 30.00F 6HR MIN TEMP: 42; 6HR MAX TEMP: 50; Statesboro CLOUDY 45 39 80 CALM 30.01S Sylvania CLOUDY 48 43 82 CALM 30.02S Claxton FAIR 46 43 91 CALM 30.02S ...CSRA, Central and far Southeast Georgia... CITY SKY/WX TMP DP RH WIND PRES REMARKS Thomson PTCLDY 44 38 79 CALM 30.03F Augusta-Bush CLOUDY 43 39 86 CALM 29.99F 6HR MIN TEMP: 41; 6HR MAX TEMP: 49; Augusta-Daniel CLOUDY 49 36 61 CALM 29.99F Swainsboro FAIR 45 45 100 CALM 30.02S Vidalia CLOUDY 48 41 76 CALM 30.02S Eastman FAIR 44 35 70 CALM 30.04F Hazlehurst FAIR 50 35 56 CALM 30.01S Alma PTCLDY 46 42 86 CALM 30.02S 6HR MIN TEMP: 41; 6HR MAX TEMP: 48; Waycross CLOUDY 48 38 68 CALM 30.02F Jesup NOT AVBL Baxley FAIR 43 43 100 S3 30.02F Brunswick CLOUDY 45 41 87 W3 30.03F Saint Simons PTCLDY 49 46 90 W5 30.03S 6HR MIN TEMP: 47; 6HR MAX TEMP: 55; $$ SCZ027-028-034-036>038-045-046-048>050-GAZ119-141-150700- ...Lake and Supplemental Coastal Observations... STATION/POSITION TIME TEMP WIND PRES WAVE SWELL AIR SEA DIR/SP/G HT/PER HT/PER/DIR (UTC) (F) (DEG/KT/KT) (MB) (FT/S) (FT/S/D) Winyah Bay NOT AVBL Lake Murray 0520 52 260/ 11/ 14 1013.9 ACE Basin NERRS 0445 50 CALM 1016.0 Fort Pulaski 0542 53 240/ 3/ 4 1016.5F Sapelo Island 0500 49 200/ 2 1017.0 $$ ANZ835-935-AMZ111-154-330-350-352-354-370-450-454-472-150700- ...C-MAN and Buoy Observations... STATION/POSITION TIME TEMP WIND PRES WAVE SWELL AIR SEA DIR/SP/G HT/PER HT/PER/DIR (UTC) (F) (DEG/KT/KT) (MB) (FT/S) (FT/S/D) Buoy 41004 0550 64 72 250/ 16/ 19 1015.5F 4/ 5 Buoy 41008 0450 58 58 220/ 8/ 8 1016.8 1/ 5 2/130/ 5 Folly Beach CMAN 0500 54 240/ 5/ 7 1016.7F Capers Nearshore 0508 52 55 250/ 10/ 14 1015.9F STATION/POSITION TIME TEMP WIND PRES WAVE SWELL AIR SEA DIR/SP/G HT/PER HT/PER/DIR (UTC) (F) (DEG/KT/KT) (MB) (FT/S) (FT/S/D) 5E St. Marys GA 0530 62 N/A 1/10 Frying Pan Buoy 0550 60 66 270/ 14/ 17 1015.5F 4/ 6 2/230/ 9 Buoy 41025 0550 58 74 20/ 8/ 14 1015.5F 4/ 8 5/190/ 8 Cape Lookout NC 0500 10/ 8/ 9 1016.0F Buoy 41002 0450 71 74 250/ 17/ 23 1015.8 8/ 8 3/280/15 Buoy 41010 NOT AVBL St Augustine FL 0600 59 63 220/ 5/ 6 1017.6F $$

USA.gov is the U.S. government's official web portal to all federal, state and local government web resources and services.